TimeCST,TemperatureF,Dew PointF,Humidity,Sea Level PressureIn,VisibilityMPH,Wind Direction,Wind SpeedMPH,Gust SpeedMPH,PrecipitationIn,Events,Conditions,WindDirDegrees,DateUTC
12:32 AM,-9.0,-18.9,62,30.35,6.0,NW,20.7,25.3,N/A,,Haze,310,2014-01-06 06:32:00
12:44 AM,-9.0,-17.0,68,30.36,2.0,NW,27.6,34.5,0.00,Snow,Light Snow,310,2014-01-06 06:44:00
12:53 AM,-9.9,-23.1,52,30.43,8.0,NW,25.3,33.4,0.00,,Mostly Cloudy,310,2014-01-06 06:53:00
1:04 AM,-11.0,-23.1,55,30.37,10.0,NW,24.2,35.7,N/A,,Scattered Clouds,310,2014-01-06 07:04:00
1:53 AM,-11.0,-23.1,55,30.44,10.0,NW,20.7,-,N/A,,Partly Cloudy,310,2014-01-06 07:53:00
2:17 AM,-11.0,-22.0,58,30.37,10.0,NW,18.4,24.2,N/A,,Mostly Cloudy,310,2014-01-06 08:17:00
2:45 AM,-11.9,-24.0,55,30.36,10.0,WNW,18.4,31.1,N/A,,Scattered Clouds,300,2014-01-06 08:45:00
2:53 AM,-11.9,-24.0,55,30.45,10.0,NW,20.7,31.1,N/A,,Partly Cloudy,310,2014-01-06 08:53:00
3:10 AM,-11.9,-23.1,58,30.38,10.0,WNW,17.3,-,N/A,,Mostly Cloudy,300,2014-01-06 09:10:00
3:53 AM,-11.9,-24.0,55,30.45,10.0,WNW,16.1,26.5,N/A,,Mostly Cloudy,300,2014-01-06 09:53:00
4:53 AM,-11.9,-23.1,58,30.44,10.0,WNW,21.9,28.8,N/A,,Overcast,300,2014-01-06 10:53:00
5:53 AM,-11.9,-22.0,61,30.44,10.0,WNW,15.0,-,N/A,,Overcast,290,2014-01-06 11:53:00
6:53 AM,-13.0,-23.1,61,30.45,10.0,NW,17.3,-,N/A,,Mostly Cloudy,310,2014-01-06 12:53:00
7:53 AM,-13.0,-22.0,64,30.46,8.0,NW,17.3,-,N/A,,Overcast,310,2014-01-06 13:53:00
8:53 AM,-11.9,-22.0,61,30.48,9.0,WNW,16.1,20.7,N/A,,Overcast,300,2014-01-06 14:53:00
9:53 AM,-9.9,-22.0,55,30.48,10.0,WNW,19.6,-,N/A,,Mostly Cloudy,290,2014-01-06 15:53:00
10:53 AM,-9.0,-20.0,59,30.48,10.0,WNW,18.4,-,N/A,,Overcast,290,2014-01-06 16:53:00
11:53 AM,-8.0,-18.9,59,30.46,10.0,West,17.3,25.3,N/A,,Overcast,280,2014-01-06 17:53:00
12:53 PM,-6.0,-18.0,56,30.44,10.0,West,20.7,-,N/A,,Mostly Cloudy,280,2014-01-06 18:53:00
1:53 PM,-5.1,-17.0,57,30.43,10.0,West,18.4,-,N/A,,Mostly Cloudy,280,2014-01-06 19:53:00
2:53 PM,-4.0,-16.1,56,30.44,10.0,West,20.7,-,N/A,,Overcast,280,2014-01-06 20:53:00
3:42 PM,-2.9,-16.1,54,30.37,10.0,West,19.6,-,N/A,,Overcast,260,2014-01-06 21:42:00
3:53 PM,-2.9,-16.1,54,30.45,10.0,West,18.4,-,N/A,,Overcast,280,2014-01-06 21:53:00
4:16 PM,-2.9,-16.1,54,30.36,10.0,West,15.0,-,N/A,,Mostly Cloudy,280,2014-01-06 22:16:00
4:41 PM,-4.0,-16.1,56,30.36,10.0,West,18.4,-,N/A,,Scattered Clouds,270,2014-01-06 22:41:00
4:51 PM,-4.0,-14.8,60,30.35,10.0,West,15.0,-,N/A,,Mostly Cloudy,280,2014-01-06 22:51:00
4:53 PM,-4.0,-15.0,59,30.44,10.0,West,16.1,-,N/A,,Mostly Cloudy,270,2014-01-06 22:53:00
5:22 PM,-4.0,-15.0,59,30.36,10.0,West,17.3,-,N/A,,Scattered Clouds,270,2014-01-06 23:22:00
5:53 PM,-4.0,-13.0,65,30.44,10.0,West,15.0,-,N/A,,Clear,270,2014-01-06 23:53:00
6:53 PM,-5.1,-14.1,65,30.45,10.0,West,12.7,-,N/A,,Clear,260,2014-01-07 00:53:00
7:53 PM,-6.0,-15.0,65,30.43,10.0,West,11.5,-,N/A,,Clear,260,2014-01-07 01:53:00
8:53 PM,-6.0,-15.0,65,30.43,10.0,WSW,10.4,-,N/A,,Clear,240,2014-01-07 02:53:00
9:53 PM,-6.0,-14.1,68,30.41,10.0,WSW,11.5,-,N/A,,Clear,250,2014-01-07 03:53:00
10:53 PM,-5.1,-14.1,65,30.40,10.0,WSW,10.4,-,N/A,,Clear,250,2014-01-07 04:53:00
11:53 PM,-5.1,-14.1,65,30.39,10.0,WSW,8.1,-,N/A,,Clear,240,2014-01-07 05:53:00